Flag for Slovenia Weather past 2 weeks in Celje, Slovenia

Now
74 °F

Passing clouds.


Feels Like: 75 °F
Forecast: 64 / 90 °F
Wind: 3 mph from West

Location: Celje

Current Time: Aug 5, 2015 at 9:15:50 AM

Latest Report: Aug 5, 2015 at 8:00 AM


Visibility: 25 mi

Pressure: 30.04 "Hg

Humidity: 73%

Dew point: 64 °F

Location of CeljeLocation

Historic Weather in Celje — Graph

°F

Celje temperature yesterday

Maximum temperature yesterday: 87 °F (at 5:00 PM)
Minimum temperature yesterday: 61 °F (at 6:00 AM)
Average temperature yesterday: 73 °F

Past Weeks' High & Low Weather Summary

 TemperatureHumidityPressure
High96 °F (Jul 22, 5:00 PM)99% (Aug 4, 6:00 AM)30.10 "Hg (Aug 4, 6:00 AM)
Low50 °F (Aug 1, 4:00 AM)36% (Jul 22, 5:00 PM)29.72 "Hg (Jul 25, 7:00 PM)
Average69 °F81%29.93 "Hg
* Reported Jul 21 8:00 AM — Aug 5 8:00 AM, Celje, Weather by CustomWeather, © 2015

Note: Actual official high and low records may vary slightly from our data, if they occured in-between our weather recording intervals... More about our weather records

Advertising

Celje weather history for previous 24 hours

 ConditionsComfort  
Time TempWeatherWind HumidityBarometerVisibility
8:00 AM
Wed, Aug 5
74 °FPassing clouds.3 mph73%30.04 "Hg25 mi
7:00 AM69 °FPassing clouds.2 mph87%30.03 "Hg25 mi
4:00 AM66 °FMild.2 mph97%30.01 "HgN/A
3:00 AM65 °FMild.1 mph98%30.01 "HgN/A
2:00 AM66 °FMild.No wind97%30.00 "HgN/A
1:00 AM66 °FMild.No wind96%30.01 "HgN/A
12:00 AM67 °FMild.1 mph96%30.00 "HgN/A
11:00 PM
Tue, Aug 4
67 °FMild.1 mph95%29.98 "HgN/A
10:00 PM69 °FMild.1 mph94%29.96 "HgN/A
9:00 PM73 °FMild.1 mph84%29.93 "HgN/A
8:00 PM76 °FPassing clouds.1 mph82%29.92 "Hg25 mi
7:00 PM83 °FWarm.1 mph58%29.90 "HgN/A
6:00 PM86 °FWarm.1 mph55%29.90 "HgN/A
5:00 PM87 °FWarm.2 mph51%29.91 "HgN/A
4:00 PM86 °FWarm.2 mph55%29.92 "HgN/A
3:00 PM84 °FPassing clouds.2 mph58%29.93 "Hg25 mi
2:00 PM85 °FPassing clouds.1 mph57%29.95 "Hg25 mi
1:00 PM83 °FWarm.1 mph59%29.96 "HgN/A
12:00 PM82 °FWarm.1 mph62%29.98 "HgN/A
11:00 AM78 °FWarm.1 mph70%30.00 "HgN/A
10:00 AM75 °FMild.2 mph74%30.01 "HgN/A
9:00 AM71 °FMild.2 mph80%30.03 "HgN/A
Weather by CustomWeather, © 2015

See weather overviewHow to use our weather pages